Location: Davayat
(45.9471°N, 3.1105°E)
Time: 16:19:54
(UTC+00:00)

SL-16 R/B - Pass Details

Date: 01 December 2020
Orbit: 841 x 849 km, 71.0° (Epoch: 17 January)

Event Time Altitude Azimuth Distance (km) Brightness Sun altitude
Rises 16:50:19 0° 203° (SSW) 3,383 6.1 -8.0°
Reaches altitude 10° 16:52:45 10° 203° (SSW) 2,452 5.3 -8.4°
Maximum altitude 16:58:23 87° 116° (ESE) 848 2.2 -9.3°
Drops below altitude 10° 17:04:04 10° 27° (NNE) 2,468 4.2 -10.2°
Enters shadow 17:05:28 - 27° (NNE) 3,004 4.6 -10.4°
